STARLINK-2468 (48127 NORAD) Tracking and Keplerian Element Data

This shows tracking and keplerian element data for the satellite.

Feedback or suggestion? Click here.




ElementValue
Catalog48127
NameSTARLINK-2468
Epoch Orbit179
Epoch Day136.75001157
Epoch Year2021
RAAN146.6901
Inclination53.0454
Eccentricity0.000135
Argument of Perigee64.5247
Mean Anonmoly83.4729
Mean Motion15.54671512
Decay Rate-0.01176583
L11 48127U 21027AM 21136.75001157 -.01176583 00000-0 -19401-1 0 9992
L22 48127 53.0454 146.6901 0001350 64.5247 83.4729 15.54671512 1796

Live tracking and technical data element details for STARLINK-2468 (NORAD 48127). STARLINK-2468 can be tracked NOW for your location showing map with azimuth and elevation plus other details from your city location.

Track the satellite on the map from your city or location and see movement details for azimuth, elevation, latitude, longitude, range, height, and movement on the map or in text.







IsCatalogInMostPopularTable: catalog: 48127, numindb: 15
Update: records affected: 1



GetName: 48127 STARLINK-2468

Hit Count: updated at: Mon, 17 May 2021 15:44:59 GMT